CMB859 Details

Departure: Ambouli International Airport (HDAM)
Arrival: Bahrain International Airport (OBBI)
Route: TORBA2E TORBA B535 KRA UM651 NADKI M318 DEGPA UT100 KUTNA UL564 BAT UL564 DOH VEDED P699 SOGAT
Notes: USTRANSCOM CONTRACT FLIGHT


Current Weather Information
HDAM 250600Z 350/05KT 9999 FEW023 35/25 Q 1012
OBBI 251100Z 32008KT CAVOK 38/13 Q1008 NOSIG